Date,TemperatureHighF,TemperatureAvgF,TemperatureLowF,DewpointHighF,DewpointAvgF,DewpointLowF,HumidityHigh,HumidityAvg,HumidityLow,PressureMaxIn,PressureMinIn,WindSpeedMaxMPH,WindSpeedAvgMPH,GustSpeedMaxMPH,PrecipitationSumIn
2014-1-1,87.6,74.6,64.9,65.4,62.1,57.0,89,67,37,30.06,29.80,8,2,11,0.00
2014-1-2,95.9,81.1,69.4,69.3,57.5,41.1,87,53,16,29.80,29.59,14,2,20,0.00
2014-1-3,82.8,74.8,68.9,71.0,65.3,55.9,89,74,47,29.80,29.42,10,3,11,0.00
2014-1-4,82.0,74.3,68.7,70.5,64.0,59.9,89,72,53,29.83,29.44,12,3,13,0.00
2014-1-5,88.7,75.0,63.5,66.8,63.0,58.2,92,69,39,29.92,29.62,8,2,13,0.00
2014-1-6,91.4,73.7,59.4,63.5,52.4,36.8,91,55,15,30.01,29.68,9,2,13,0.00
2014-1-7,71.1,67.2,63.9,60.2,57.3,53.5,81,71,58,30.21,30.01,12,3,14,0.00
2014-1-8,73.0,67.1,61.7,58.6,53.9,49.1,86,64,46,30.30,30.15,9,2,13,0.00
2014-1-9,75.2,68.6,62.2,57.7,53.3,48.7,75,59,42,30.33,30.21,6,2,10,0.00
2014-1-10,81.1,71.4,60.8,61.9,58.4,53.9,88,65,41,30.24,30.09,11,2,15,0.00
2014-1-11,90.5,76.7,64.4,64.0,58.4,53.4,86,57,31,30.15,29.95,8,2,11,0.00
2014-1-12,86.2,74.1,63.3,63.9,58.0,47.9,82,60,31,30.18,30.01,8,2,11,0.00
2014-1-13,81.5,72.9,66.9,64.6,59.1,54.2,82,64,43,30.21,30.09,9,4,11,0.00
2014-1-14,87.4,72.5,58.8,63.2,59.0,53.8,92,65,34,30.24,30.12,8,2,11,0.00
2014-1-15,94.1,77.5,61.7,65.2,59.5,53.1,90,58,27,30.24,30.06,8,2,12,0.00
2014-1-16,92.7,77.2,62.4,66.3,60.3,56.1,92,60,31,30.15,29.98,7,2,12,0.00
2014-1-17,90.9,75.1,59.9,67.6,59.8,51.9,92,62,28,30.09,29.92,8,2,12,0.00
2014-1-18,96.8,78.1,60.1,65.0,54.8,42.6,89,52,17,30.01,29.74,7,2,12,0.00
2014-1-19,87.3,74.2,63.9,66.1,61.0,54.8,83,65,44,29.89,29.74,11,2,15,0.00
2014-1-20,83.1,75.1,68.4,67.9,64.8,61.4,88,72,51,29.89,29.71,9,2,11,0.00
2014-1-21,80.4,73.7,70.0,71.3,67.7,65.9,93,82,65,29.89,29.71,10,3,15,0.00
2014-1-22,73.6,69.9,67.1,69.1,63.5,57.6,94,80,63,30.21,29.89,12,4,14,0.03
2014-1-23,73.2,68.6,65.5,66.1,64.3,61.9,93,86,74,30.24,30.09,7,2,11,0.00
2014-1-24,86.4,74.5,64.8,67.7,63.9,57.8,94,73,39,30.09,29.68,10,2,13,0.09
2014-1-25,77.9,70.1,65.3,66.4,58.0,48.8,91,68,43,30.18,29.74,19,4,25,0.00
2014-1-26,73.4,67.1,62.1,59.1,53.0,47.4,85,62,42,30.33,30.18,9,3,13,0.00
2014-1-27,81.3,68.5,55.6,59.0,53.7,49.1,87,62,36,30.33,30.15,10,2,12,0.00
2014-1-28,86.0,73.5,61.3,59.6,56.2,51.6,80,57,33,30.24,30.04,10,3,12,0.00
2014-1-29,92.7,74.9,58.6,62.6,55.4,44.8,89,56,24,30.12,29.92,8,2,11,0.00
2014-1-30,86.4,72.2,57.4,62.4,54.2,50.9,90,57,32,30.18,29.98,9,2,13,0.00
2014-1-31,91.2,74.2,57.0,59.7,53.9,50.2,84,53,25,30.06,29.86,9,2,12,0.00
2014-2-1,88.3,75.5,62.6,64.5,59.3,54.3,89,59,39,30.04,29.86,8,3,11,0.00
2014-2-2,85.5,72.9,60.6,66.0,59.0,55.3,91,64,40,30.04,29.92,9,3,13,0.00
2014-2-3,88.2,75.8,66.9,61.2,57.2,50.3,79,56,29,30.06,29.86,9,3,15,0.00
2014-2-4,82.0,68.7,61.5,65.1,59.9,53.6,94,76,39,30.24,29.89,16,5,20,0.04
2014-2-5,72.3,66.6,63.1,56.3,51.6,44.5,75,60,39,30.30,30.18,13,5,20,0.00
2014-2-6,74.3,66.9,60.1,57.9,53.0,48.8,81,63,42,30.21,30.04,8,2,10,0.00
2014-2-7,82.6,67.5,52.3,59.8,53.5,47.3,94,64,34,30.12,29.98,9,2,11,0.00
2014-2-8,87.8,71.2,55.2,62.8,55.4,49.8,93,62,29,30.15,30.01,7,2,10,0.00
2014-2-9,93.6,74.4,57.9,65.5,57.2,44.8,92,61,20,30.18,29.92,8,2,11,0.00
2014-2-10,83.8,73.6,61.5,65.6,61.5,54.6,92,67,46,30.12,29.95,11,4,13,0.00
2014-2-11,85.6,75.0,69.8,66.8,64.6,60.2,88,72,44,30.09,29.92,9,2,11,0.00
2014-2-12,85.6,75.8,67.5,67.2,63.5,57.9,90,68,40,30.09,29.92,9,2,13,0.00
2014-2-13,87.1,75.5,65.5,66.5,61.6,56.1,90,65,41,30.06,29.80,8,2,11,0.00
2014-2-14,76.8,71.8,68.0,67.0,64.4,59.3,89,78,64,29.89,29.68,6,1,8,0.00
2014-2-15,76.1,72.3,68.7,71.4,69.2,66.5,95,90,84,29.77,29.50,7,1,8,0.13
2014-2-16,76.1,72.6,71.2,73.9,71.1,70.3,97,95,92,29.59,29.50,4,1,6,0.13
2014-2-19,72.3,72.0,71.8,70.9,70.7,70.3,96,96,95,29.62,29.59,4,1,5,0.86
2014-2-20,86.5,74.8,67.8,70.2,62.8,54.0,97,70,37,29.89,29.59,9,2,13,0.00
2014-2-21,79.7,70.6,65.8,62.3,54.0,40.6,87,59,31,30.12,29.89,9,3,13,0.00
2014-2-22,76.8,69.6,64.8,60.0,57.4,53.4,79,66,47,30.21,30.09,11,4,11,0.00
2014-2-23,74.1,68.8,64.6,60.7,56.7,50.9,82,66,45,30.27,30.15,12,4,15,0.00
2014-2-24,79.9,71.1,65.1,65.6,62.0,58.7,92,74,50,30.21,30.04,8,2,10,0.00
2014-2-25,83.5,72.0,61.2,66.1,60.6,55.0,93,70,41,30.12,29.89,8,2,10,0.00
2014-2-26,89.6,74.6,61.3,65.9,59.6,51.5,91,63,28,29.95,29.80,10,2,13,0.00
2014-2-27,79.2,71.9,66.6,67.9,64.6,61.5,90,78,63,30.18,29.95,14,5,16,0.00
2014-2-28,69.6,67.7,65.7,67.9,65.1,61.6,97,92,84,30.24,30.12,8,3,11,1.05
2014-3-1,70.3,66.8,64.4,66.7,62.9,60.5,96,88,73,30.18,30.09,6,1,8,0.11
2014-3-2,73.6,67.5,63.5,66.0,62.8,60.7,97,86,65,30.21,30.09,8,2,10,0.14
2014-3-3,75.2,69.2,65.5,67.4,64.7,62.8,97,86,70,30.30,30.18,7,2,10,0.08
2014-3-4,79.7,70.6,64.2,65.7,61.2,52.9,93,75,44,30.33,30.15,7,2,10,0.00
2014-3-5,83.8,69.5,59.7,68.7,62.2,57.2,98,80,45,30.18,29.42,10,1,11,0.28
2014-3-6,76.6,70.2,64.4,69.0,65.0,62.9,97,84,67,29.62,29.47,10,2,12,0.00
2014-3-7,81.1,71.1,63.9,68.7,64.4,62.1,97,81,58,29.65,29.53,6,1,8,0.00
2014-3-8,81.5,72.1,65.3,64.7,59.9,52.6,89,68,43,29.68,29.59,9,2,14,0.00
2014-3-9,80.2,70.7,61.0,63.8,59.3,55.0,91,69,43,29.77,29.59,9,2,13,0.00
2014-3-10,81.5,71.9,65.8,64.0,60.8,58.2,86,69,49,29.74,29.62,9,2,11,0.00
2014-3-11,79.0,70.2,61.0,65.9,59.1,51.6,93,70,39,29.77,29.59,8,2,13,0.00
2014-3-12,83.5,70.2,57.4,65.6,59.1,53.7,94,70,41,29.65,29.47,6,1,8,0.00
2014-3-13,79.5,70.7,66.2,66.5,63.7,61.1,95,79,60,29.65,29.53,7,2,9,0.00
2014-3-14,81.5,70.8,60.8,65.8,60.6,56.3,93,72,43,29.62,29.42,6,1,8,0.00
2014-3-15,82.8,70.7,61.0,66.3,60.7,57.1,95,73,44,29.50,29.24,8,1,13,0.00
2014-3-16,84.2,71.1,61.5,66.6,58.9,40.8,94,69,36,29.44,29.15,11,2,19,0.00
2014-3-17,77.4,65.5,51.8,52.3,44.8,40.8,78,50,31,29.65,29.44,7,2,12,0.00
2014-3-18,82.4,66.9,52.9,56.8,49.0,45.3,85,57,29,29.74,29.62,8,1,10,0.00
2014-3-19,80.1,68.6,56.7,65.6,58.7,50.9,88,72,46,29.86,29.71,12,3,17,0.00
2014-3-20,79.3,69.7,60.6,67.4,61.5,57.8,95,77,50,29.89,29.74,7,1,10,0.00
2014-3-21,78.3,70.5,65.5,68.6,63.2,56.7,94,79,55,29.77,29.59,7,1,9,0.00
2014-3-22,82.2,69.8,59.4,66.3,59.8,54.2,96,73,40,29.65,29.47,8,1,8,0.00
2014-3-23,85.6,72.4,64.2,67.9,62.5,54.8,94,74,37,29.62,29.42,10,2,15,0.26
2014-3-24,70.2,67.4,63.1,65.8,61.7,59.0,90,82,74,29.59,29.47,10,2,12,0.03
2014-3-25,74.1,66.3,58.6,65.7,61.9,56.8,97,86,70,29.74,29.56,5,1,6,0.00
2014-3-26,75.7,70.1,65.8,70.7,67.0,64.9,98,90,78,29.74,29.65,6,1,8,0.09
2014-3-27,70.2,67.4,63.5,68.2,65.1,60.6,96,92,83,29.74,29.59,6,1,10,0.86
2014-3-28,74.8,67.6,63.0,68.1,64.9,61.2,98,92,76,29.62,29.39,6,1,8,0.58
2014-3-29,76.3,68.5,61.2,67.8,63.2,60.0,98,84,62,29.56,29.42,6,1,8,0.00
2014-3-30,76.5,68.7,61.3,68.1,63.5,59.8,97,84,66,29.68,29.53,6,1,10,0.20
2014-3-31,76.1,68.3,62.6,67.3,62.8,60.8,97,84,62,29.68,29.56,5,1,6,0.00
2014-4-1,76.1,66.5,58.8,68.1,61.8,56.7,98,86,67,29.65,29.50,5,1,8,0.00
2014-4-2,77.4,67.8,59.7,68.4,63.0,57.7,98,85,67,29.56,29.42,0,0,0,0.00
2014-4-3,81.7,66.7,61.7,71.2,63.0,60.3,98,89,61,29.59,29.42,0,0,0,0.00
2014-4-4,68.7,68.1,67.8,66.6,66.1,65.5,96,93,90,29.56,29.50,0,0,0,0.16
2014-4-5,73.8,69.6,67.6,68.4,67.0,65.1,98,91,80,29.56,29.47,0,0,0,0.00
2014-4-14,65.7,62.5,61.0,58.5,57.6,55.8,90,84,71,29.68,29.59,4,1,5,0.00
2014-4-15,67.5,63.8,57.9,60.5,56.4,51.5,93,78,58,29.71,29.59,11,3,14,0.05
2014-4-16,69.6,64.8,57.9,58.4,55.3,51.9,93,72,56,29.68,29.56,11,3,13,0.04
2014-4-17,71.4,62.2,53.4,56.2,52.2,46.0,92,72,42,29.68,29.59,10,2,11,0.00
2014-4-18,72.3,62.1,51.8,59.5,50.8,42.2,95,70,34,29.62,29.42,6,1,6,0.00
2014-4-19,70.3,60.8,50.5,57.4,50.1,45.6,88,69,46,29.62,29.50,7,1,9,0.00
2014-4-20,70.9,61.6,54.0,57.6,49.4,42.0,90,67,37,29.65,29.50,6,1,9,0.00
2014-4-21,68.0,57.1,46.4,53.1,45.2,41.2,90,67,41,29.74,29.62,7,1,9,0.00
2014-4-22,73.2,59.3,45.5,56.0,46.3,41.0,91,66,34,29.74,29.53,7,1,8,0.00
2014-4-23,75.4,61.4,48.6,52.5,47.3,43.6,86,63,35,29.68,29.53,5,0,6,0.00
2014-4-24,78.3,63.3,49.1,59.8,49.3,44.3,92,64,32,29.56,29.42,6,1,7,0.00
2014-4-25,69.1,63.6,57.4,61.9,58.5,53.0,94,84,62,29.80,29.62,12,2,13,0.82
2014-4-26,70.2,60.9,51.4,61.8,55.7,48.9,95,84,63,29.68,29.50,2,0,3,0.00
2014-4-27,67.5,61.5,55.9,62.6,58.6,53.6,98,90,74,29.86,29.59,10,1,13,0.04
2014-4-28,68.2,62.4,57.2,62.9,59.0,54.3,97,89,74,29.86,29.71,4,0,6,0.00
2014-4-29,72.1,60.4,50.0,61.6,54.6,47.8,97,82,58,29.74,29.47,7,1,10,0.00
2014-4-30,69.8,62.6,56.3,65.5,59.3,51.5,97,89,74,29.56,29.39,6,0,7,0.18
2014-5-1,67.8,59.5,53.2,53.7,49.8,45.5,87,71,55,29.62,29.47,6,1,8,0.03
2014-5-2,67.5,59.9,49.8,56.1,49.4,44.3,95,71,44,29.44,29.12,7,1,9,0.00
2014-5-3,60.4,55.8,51.4,45.8,41.5,37.2,78,59,47,29.15,28.97,11,4,16,0.00
2014-5-4,64.6,56.9,51.1,48.5,40.5,31.2,79,56,37,29.47,29.12,8,3,13,0.04
2014-5-5,61.3,53.0,43.5,42.0,37.6,32.1,75,57,43,29.71,29.47,6,3,8,0.00
2014-5-6,64.4,51.1,38.8,48.0,42.0,32.9,87,72,52,29.77,29.65,3,3,4,0.00
2014-5-7,65.5,58.7,49.8,48.7,45.6,41.4,87,63,46,29.86,29.71,9,3,11,0.00
2014-5-8,64.4,58.1,52.9,52.9,48.4,41.2,88,70,58,29.92,29.83,8,2,10,0.00
2014-5-9,65.7,58.2,52.3,56.3,52.6,48.0,94,82,62,29.92,29.80,5,0,6,0.00
2014-5-10,66.0,56.1,45.3,56.9,49.4,41.7,95,79,58,29.86,29.71,6,1,6,0.00
2014-5-11,68.7,60.3,55.8,61.4,55.6,51.8,96,85,58,29.86,29.71,9,1,10,0.08
2014-5-12,68.4,60.2,51.1,59.0,53.1,48.8,96,79,56,30.01,29.89,11,2,13,0.00
2014-5-13,67.8,60.8,54.7,61.3,56.3,51.5,97,86,64,30.01,29.89,4,0,5,0.17
2014-5-14,66.7,57.0,48.6,60.5,51.0,46.8,98,82,57,30.01,29.83,6,1,8,0.00
2014-5-15,66.6,52.6,43.9,57.8,47.5,40.6,97,84,58,29.98,29.89,4,0,6,0.00
2014-6-12,63.1,54.5,47.3,54.8,48.7,42.7,96,82,59,29.80,29.65,5,0,7,0.00
2014-6-13,63.0,52.8,44.2,56.1,48.1,40.6,95,85,63,29.74,29.56,3,0,4,0.00
2014-6-14,63.3,56.6,50.4,59.9,53.7,47.2,98,90,76,29.53,29.42,4,0,6,0.12
2014-6-15,61.5,53.8,46.8,49.5,45.4,41.0,92,75,52,29.56,29.36,6,2,9,0.00
2014-6-16,59.7,50.6,39.2,49.2,42.1,34.2,91,73,57,29.80,29.62,6,2,8,0.00
2014-6-17,49.5,44.7,40.5,39.9,37.9,35.0,82,77,69,29.83,29.77,3,0,4,0.00
2014-6-19,61.0,55.1,45.3,55.1,49.2,43.4,96,81,66,29.98,29.80,5,1,6,0.00
2014-6-20,66.0,52.3,45.3,57.4,47.9,42.7,96,86,63,29.80,29.59,11,1,17,0.08
2014-6-21,63.5,52.5,43.9,57.2,45.5,41.4,98,79,48,29.74,29.65,6,0,6,0.00
2014-6-22,63.0,52.5,43.3,53.6,46.5,40.0,95,81,57,29.80,29.68,6,0,8,0.05
2014-6-23,57.9,51.0,41.7,53.6,44.4,38.1,96,79,59,29.71,29.36,9,2,11,0.00
2014-6-24,57.9,54.9,49.1,40.7,35.6,31.5,65,49,38,29.92,29.27,11,4,17,0.00
2014-6-25,62.6,56.4,50.7,43.0,37.4,32.8,72,50,35,30.15,29.95,10,3,12,0.00
2014-6-26,62.8,54.9,48.7,41.6,39.1,35.8,68,56,43,30.27,30.12,10,4,12,0.00
2014-6-27,61.7,49.8,40.5,47.4,38.3,33.2,86,66,41,30.27,30.04,7,1,9,0.00
2014-6-28,64.0,49.2,33.8,49.9,37.5,27.7,93,66,42,30.01,29.68,10,3,15,0.00
2014-6-29,56.7,52.4,48.7,35.2,33.6,31.1,59,49,39,29.92,29.71,11,5,19,0.00
2014-6-30,57.6,50.6,44.1,39.7,33.8,27.4,72,54,37,30.18,29.92,6,3,10,0.00
2014-7-1,58.5,47.0,35.4,41.2,33.6,27.0,79,61,41,30.33,30.21,6,1,6,0.00
2014-7-2,59.4,46.6,35.1,43.7,36.8,29.1,86,70,49,30.42,30.30,4,0,6,0.00
2014-7-3,59.7,45.6,33.4,48.0,37.0,28.0,93,73,51,30.39,30.24,4,0,5,0.00
2014-7-4,62.8,47.6,32.9,48.0,34.3,27.6,93,64,34,30.27,30.06,9,1,13,0.00
2014-7-5,61.2,49.2,36.7,43.9,33.6,30.1,85,58,35,30.12,29.95,8,2,10,0.00
2014-7-6,58.6,51.4,41.2,41.4,35.6,31.1,75,56,45,30.04,29.92,7,2,9,0.00
2014-7-7,58.6,47.5,34.5,41.3,34.4,27.1,84,61,45,30.04,29.92,6,1,10,0.00
2014-7-8,58.3,45.9,34.3,40.8,33.1,27.9,85,63,38,30.09,29.92,6,1,8,0.00
2014-7-9,63.3,47.6,26.1,44.6,28.8,19.2,95,54,25,29.92,29.59,9,2,13,0.00
2014-7-10,57.7,52.5,46.9,36.2,30.3,24.3,49,43,36,29.92,29.68,10,4,15,0.00
2014-7-11,59.0,51.2,43.7,38.0,34.4,30.3,66,53,44,30.15,29.98,8,3,10,0.00
2014-7-12,59.5,49.9,37.9,39.9,32.5,29.4,76,53,35,30.21,30.09,8,2,10,0.00
2014-7-13,57.0,50.0,43.2,38.5,34.5,28.5,70,55,46,30.45,30.21,9,3,12,0.00
2014-7-14,60.4,50.0,38.5,47.6,40.4,31.6,85,71,52,30.51,30.42,6,1,8,0.00
2014-7-15,59.2,52.2,46.2,53.1,47.8,42.7,94,85,73,30.42,30.21,3,0,4,0.00
2014-7-16,61.9,54.0,49.1,56.8,47.4,40.3,98,81,49,30.15,30.01,7,1,9,0.00
2014-7-17,61.9,53.6,46.9,47.1,40.0,33.6,82,62,41,30.12,29.95,10,3,13,0.00
2014-7-18,57.6,48.5,37.9,38.7,31.9,28.4,85,55,35,30.09,29.89,7,2,10,0.00
2014-7-19,57.9,50.9,42.3,36.7,32.8,28.3,60,50,42,30.27,30.12,17,4,19,0.00
2014-7-20,59.0,54.3,50.5,48.5,42.2,34.1,77,64,49,30.36,30.21,12,5,15,0.00
2014-7-21,61.9,53.7,46.6,50.0,46.0,42.9,90,76,52,30.39,30.30,7,1,8,0.00
2014-7-22,61.9,52.3,45.1,52.9,45.9,39.0,96,79,57,30.39,30.27,5,1,6,0.00
2014-7-23,59.7,49.2,38.8,54.5,43.6,35.1,98,82,66,30.39,30.24,4,0,6,0.00
2014-7-24,60.3,49.6,38.3,53.8,44.6,34.8,96,83,69,30.33,30.18,4,0,5,0.00
2014-7-25,61.3,50.9,39.2,56.0,46.4,36.0,98,85,68,30.36,30.24,9,1,13,0.00
2014-7-26,58.5,54.5,46.6,56.4,52.6,44.1,98,93,84,30.42,30.30,6,1,6,0.54
2014-7-27,61.5,51.0,41.2,50.7,42.6,38.7,97,76,47,30.42,30.30,6,1,7,0.00
2014-7-28,62.1,51.1,41.2,48.3,41.3,36.7,92,71,45,30.33,30.18,8,1,8,0.00
2014-7-29,65.3,54.7,43.7,46.8,40.0,36.1,85,60,37,30.27,30.04,9,2,13,0.00
2014-7-30,67.8,58.1,45.7,42.6,39.4,34.8,74,51,39,30.21,30.04,8,2,12,0.00
2014-7-31,69.1,56.1,41.7,46.8,36.8,32.1,86,53,27,30.12,29.83,10,2,17,0.00
2014-8-1,65.8,57.7,51.1,36.7,30.1,22.7,48,35,28,30.04,29.74,12,2,13,0.00
2014-8-2,57.6,49.9,40.8,32.0,29.3,24.7,57,45,35,30.45,30.04,14,2,21,0.00
2014-8-3,58.3,49.3,39.9,41.7,37.6,30.9,75,65,49,30.60,30.45,8,1,9,0.00
2014-8-4,61.0,49.2,36.9,49.3,40.3,31.6,93,73,49,30.57,30.45,6,1,10,0.00
2014-8-5,64.8,50.9,38.5,51.3,39.4,34.7,94,68,34,30.57,30.45,9,1,10,0.00
2014-8-6,62.6,49.3,37.0,47.4,37.8,31.8,92,67,41,30.60,30.36,8,1,9,0.00
2014-8-7,61.5,47.6,33.4,42.4,36.5,27.3,85,67,48,30.48,30.36,6,1,9,0.00
2014-8-8,62.1,49.0,35.8,50.6,42.0,30.7,94,78,61,30.57,30.48,9,1,10,0.00
2014-8-9,64.6,50.5,38.7,53.3,40.3,34.6,96,72,37,30.54,30.36,8,1,11,0.00
2014-8-10,64.8,49.9,36.3,46.1,34.6,30.4,90,60,33,30.36,30.18,6,1,8,0.00
2014-8-11,57.2,47.6,36.5,40.3,34.6,30.0,85,62,47,30.39,30.24,10,3,12,0.00
2014-8-12,57.9,49.9,42.6,44.3,39.4,33.9,80,68,50,30.54,30.36,10,2,11,0.00
2014-8-13,59.4,52.6,47.3,49.6,43.9,38.0,93,74,48,30.63,30.51,12,3,18,0.00
2014-8-14,61.7,49.7,36.9,47.3,39.8,32.8,90,71,45,30.63,30.54,8,2,10,0.00
2014-8-15,62.2,52.3,43.0,51.9,44.6,39.4,94,76,56,30.57,30.39,6,1,9,0.00
2014-8-16,63.0,51.7,41.0,55.1,47.2,37.4,95,85,64,30.39,30.15,8,1,10,0.21
2014-8-17,64.8,58.2,50.4,58.6,48.7,38.7,98,74,44,30.09,29.77,7,2,10,0.65
2014-8-18,57.7,52.4,43.0,54.7,47.3,37.5,93,83,73,29.89,29.71,16,2,24,0.18
2014-8-19,61.7,56.3,53.2,53.5,50.4,44.5,96,81,64,30.24,29.92,19,6,24,0.54
2014-8-20,59.9,55.0,50.0,47.8,43.8,39.7,76,66,54,30.42,30.24,12,5,14,0.00
2014-8-21,60.6,54.0,48.7,53.0,49.8,45.5,92,86,67,30.54,30.42,9,2,12,0.16
2014-8-22,64.4,56.9,51.3,56.8,51.3,47.6,98,83,59,30.60,30.48,8,2,10,0.15
2014-8-23,64.2,55.7,48.4,56.7,50.9,45.5,98,85,63,30.60,30.48,8,1,10,0.05
2014-8-24,64.6,56.7,49.6,58.8,52.0,47.2,98,85,62,30.54,30.42,5,1,6,0.00
2014-8-25,64.9,54.1,45.3,57.7,49.2,43.9,98,84,63,30.45,30.24,5,1,7,0.00
2014-8-26,60.6,54.2,47.1,56.5,51.5,44.6,98,91,79,30.36,30.27,9,1,10,0.29
2014-8-27,62.1,57.8,54.5,56.2,53.1,48.3,97,85,69,30.36,30.27,17,6,21,0.92
2014-8-28,63.3,56.7,52.3,56.5,49.2,42.0,97,77,51,30.45,30.33,15,4,20,0.25
2014-8-29,61.2,54.6,48.4,50.6,46.6,42.9,90,75,63,30.45,30.33,16,4,16,0.00
2014-8-30,61.9,57.1,53.8,54.2,49.0,42.2,82,74,64,30.36,30.24,14,7,21,0.00
2014-8-31,66.7,59.9,53.6,52.7,49.8,44.5,86,71,45,30.30,30.12,8,2,10,0.00
2014-9-1,72.3,57.7,45.9,70.8,46.7,42.8,95,70,42,30.21,29.42,9,2,11,0.79
2014-9-2,60.1,55.4,50.9,53.2,47.6,41.4,86,75,56,29.44,29.33,11,1,15,0.20
2014-9-3,60.8,53.9,47.8,42.0,35.4,31.9,80,51,36,29.50,29.39,17,6,20,0.05
2014-9-4,60.6,54.4,48.9,41.8,36.8,33.1,58,51,42,29.56,29.44,16,5,19,0.00
2014-9-5,62.6,55.6,50.9,47.6,43.4,39.6,77,64,44,29.80,29.59,17,7,26,0.00
2014-9-6,62.4,56.0,50.2,53.5,49.1,46.0,93,78,56,30.01,29.83,7,2,10,0.15
2014-9-7,64.6,56.4,49.3,55.6,49.7,46.6,97,80,56,30.06,29.92,6,1,9,0.06
2014-9-8,66.7,55.4,42.8,55.6,47.2,39.4,96,76,52,30.01,29.80,8,2,10,0.00
2014-9-9,72.0,59.7,46.0,56.0,49.5,42.7,95,72,44,29.80,29.44,8,2,9,0.00
2014-9-10,70.5,62.3,56.5,58.3,48.7,37.9,93,66,33,29.56,29.33,7,2,11,0.28
2014-9-11,70.5,60.1,47.7,47.9,43.4,39.1,79,56,37,29.65,29.50,7,2,8,0.00
2014-9-12,64.4,59.0,54.3,52.7,49.0,42.9,85,70,56,29.89,29.71,8,2,10,0.00
2014-9-13,66.6,59.5,53.8,55.8,52.8,50.1,94,80,60,29.92,29.77,6,1,6,0.00
2014-9-14,72.0,60.5,50.0,60.3,51.0,45.8,97,74,42,29.80,29.56,10,2,10,0.00
2014-9-15,69.8,61.0,50.5,57.4,51.5,45.0,95,73,43,29.71,29.53,6,1,8,0.00
2014-9-16,74.7,64.7,55.4,58.7,48.1,36.0,91,60,25,29.56,29.24,10,2,12,0.00
2014-9-17,70.0,61.7,52.0,45.1,36.5,29.4,65,41,26,29.50,29.36,9,2,11,0.00
2014-9-18,67.6,56.1,44.8,42.4,34.5,28.9,71,46,24,29.68,29.47,7,2,10,0.00
2014-9-19,65.1,53.9,41.5,45.0,36.9,31.5,82,56,29,29.74,29.56,5,1,6,0.00
2014-9-20,65.7,53.8,41.5,48.8,41.5,35.5,85,65,41,29.86,29.65,8,2,10,0.00
2014-9-21,66.4,57.3,48.7,51.4,46.9,41.9,84,69,49,29.98,29.86,10,2,13,0.00
2014-9-22,68.7,56.9,44.4,55.1,45.8,40.4,94,69,43,30.06,29.92,6,1,8,0.00
2014-9-23,69.4,56.2,41.7,53.9,45.7,37.5,95,70,40,30.01,29.83,8,1,12,0.00
2014-9-24,74.8,60.0,45.1,58.6,47.3,41.4,96,67,33,29.86,29.56,10,2,10,0.00
2014-9-25,70.9,61.3,54.1,60.2,55.1,48.8,90,81,56,29.56,29.39,12,2,13,0.63
2014-9-26,68.9,61.5,56.1,53.2,49.8,40.5,80,67,38,29.65,29.53,10,3,13,0.00
2014-9-27,67.5,60.5,54.3,53.5,50.4,46.0,85,71,50,29.80,29.62,6,2,7,0.00
2014-9-28,72.7,59.8,45.3,57.0,46.6,40.8,94,66,35,29.80,29.53,8,2,10,0.00
2014-9-29,80.6,64.9,47.1,57.0,46.3,42.4,92,57,29,29.62,29.44,9,2,13,0.00
2014-9-30,84.2,69.9,53.6,61.2,47.7,41.0,85,51,23,29.56,29.36,9,2,13,0.00
2014-10-1,70.0,64.4,51.8,43.3,34.2,26.3,55,34,20,29.68,29.33,13,3,15,0.00
2014-10-2,71.6,58.1,44.1,45.7,40.2,36.7,80,54,32,29.74,29.53,8,2,13,0.00
2014-10-3,72.0,61.6,49.5,56.5,49.8,40.6,87,67,46,29.74,29.59,8,2,10,0.00
2014-10-4,76.5,66.7,59.7,58.8,54.8,46.0,88,68,36,29.71,29.53,6,1,9,0.00
2014-10-5,84.9,67.1,48.6,59.0,45.0,35.1,92,53,20,30.18,29.59,7,1,12,0.00
2014-10-6,83.1,69.4,57.6,60.0,55.8,46.5,89,65,35,30.24,29.92,6,2,8,0.00
2014-10-7,83.7,70.5,58.6,57.0,50.9,43.6,87,53,31,30.06,29.77,9,2,11,0.00
2014-10-8,64.0,60.8,55.9,58.6,54.8,51.2,88,81,71,30.24,30.09,9,2,11,0.12
2014-10-9,70.9,62.0,54.5,59.0,52.6,47.6,94,73,47,30.30,30.15,6,2,10,0.00
2014-10-10,75.9,61.5,48.2,56.6,50.0,43.9,93,69,35,30.24,30.01,6,1,10,0.00
2014-10-11,81.5,66.9,52.7,61.9,52.5,37.7,93,65,24,30.15,29.98,7,1,10,0.00
2014-10-12,83.7,66.5,49.3,61.4,49.6,38.4,92,60,21,30.12,29.92,7,1,12,0.00
2014-10-13,78.8,66.3,55.0,62.2,53.1,47.1,91,65,40,29.95,29.24,10,2,14,0.21
2014-10-14,65.3,59.1,50.5,57.7,47.2,34.6,90,68,36,29.44,29.33,9,2,12,0.21
2014-10-15,57.0,52.1,49.3,47.6,44.9,41.9,89,77,60,29.50,29.36,14,4,22,0.60
2014-10-16,71.8,62.3,43.7,51.7,42.6,35.7,91,52,31,29.68,29.50,8,2,10,0.00
2014-10-17,65.7,57.0,48.2,53.3,47.9,42.6,88,72,55,29.92,29.68,14,4,17,0.00
2014-10-18,69.3,59.7,50.0,52.7,47.1,42.0,90,65,43,30.01,29.86,8,2,10,0.00
2014-10-19,77.2,61.2,45.5,54.9,46.4,40.6,93,63,31,29.95,29.71,7,1,8,0.00
2014-10-20,68.0,59.7,51.6,59.0,52.8,46.9,94,79,57,30.04,29.77,18,4,25,0.00
2014-10-21,63.5,58.9,52.2,55.0,50.8,44.8,92,76,56,30.09,29.95,5,1,7,0.00
2014-10-22,74.5,61.5,50.0,57.2,50.3,45.6,93,69,41,30.04,29.68,8,2,12,0.00
2014-10-23,85.3,66.5,51.4,60.7,52.8,47.1,93,65,31,29.71,29.53,6,1,8,0.00
2014-10-24,81.5,69.2,56.8,63.7,58.5,51.9,93,71,45,29.74,29.44,7,2,9,0.00
2014-10-25,89.8,73.2,60.3,65.4,58.6,48.1,93,65,24,29.56,29.42,8,1,8,0.00
2014-10-26,96.6,75.6,64.8,66.0,58.4,33.1,93,64,11,29.56,29.21,11,2,15,0.00
2014-10-27,89.2,75.3,63.0,65.1,53.7,34.3,89,55,19,29.47,29.12,11,2,13,0.00
2014-10-28,83.8,70.3,56.1,55.0,39.9,27.0,80,39,14,29.47,29.30,9,1,10,0.00
2014-10-29,78.4,65.3,51.4,52.6,44.2,36.3,70,48,27,29.56,29.44,10,2,13,0.00
2014-10-30,86.4,67.1,52.7,60.4,52.5,42.6,89,64,23,29.56,29.39,7,1,10,0.00
2014-10-31,93.6,72.7,52.9,58.9,46.4,30.9,87,49,11,29.53,29.21,10,2,14,0.00
2014-11-1,93.6,79.0,67.5,57.5,52.5,41.0,62,42,23,29.39,29.00,14,4,23,0.00
2014-11-2,75.6,64.4,53.8,41.0,32.4,23.6,57,31,16,29.71,29.39,8,2,14,0.00
2014-11-3,72.1,61.1,50.9,49.8,44.9,38.9,73,57,39,29.80,29.65,8,2,12,0.00
2014-11-4,75.4,65.8,56.1,57.3,53.6,48.2,83,66,45,29.80,29.59,6,2,9,0.00
2014-11-5,87.1,65.8,57.2,60.9,55.6,45.3,91,73,25,29.65,29.42,11,2,13,0.75
2014-11-6,75.6,62.9,53.2,59.7,54.7,50.0,94,76,47,29.62,29.47,13,2,15,0.00
2014-11-7,75.6,63.9,53.6,58.8,54.0,49.7,92,72,49,29.80,29.59,7,1,10,0.00
2014-11-8,81.3,65.1,52.2,61.0,53.5,45.1,94,69,31,29.80,29.59,7,1,9,0.00
2014-11-9,81.0,67.4,55.0,65.4,58.2,50.8,95,74,49,29.62,29.53,8,2,11,0.00
2014-11-10,79.9,68.4,62.4,61.6,58.7,56.7,85,72,49,29.68,29.47,10,2,13,0.00
2014-11-11,72.3,65.5,61.5,58.3,54.9,47.1,86,70,44,29.71,29.59,7,2,9,0.00
2014-11-12,75.4,65.9,59.0,57.6,54.2,49.6,87,68,44,29.71,29.50,7,2,11,0.00
2014-11-13,78.6,67.1,55.0,62.1,57.8,50.8,92,73,51,29.68,29.47,6,1,10,0.00
2014-11-14,98.1,76.3,58.6,68.1,55.0,42.9,96,58,17,29.50,29.21,11,1,17,0.00
2014-11-15,82.4,70.9,64.6,59.4,56.0,51.9,71,60,42,29.44,29.30,10,3,15,0.00
2014-11-16,83.1,69.5,59.7,65.2,51.6,40.6,89,59,25,29.42,29.12,10,2,15,0.07
2014-11-17,81.1,67.9,55.8,52.7,46.0,42.1,70,47,29,29.56,29.36,8,2,12,0.00
2014-11-18,82.4,68.1,58.6,59.8,52.5,45.0,86,60,28,29.68,29.47,9,2,14,0.00
2014-11-19,75.2,68.7,62.1,61.9,58.9,52.9,84,72,56,29.74,29.56,7,2,10,0.00
2014-11-20,94.6,75.7,60.3,65.6,58.8,46.6,93,62,20,29.59,29.24,8,2,11,0.00
2014-11-21,99.1,82.2,66.9,68.6,57.1,35.9,88,51,14,29.42,29.12,14,3,17,0.00
2014-11-22,89.2,73.5,66.7,62.5,59.9,57.4,80,64,38,29.56,29.36,10,3,13,0.00
2014-11-23,105.6,82.0,63.7,68.9,56.8,33.2,92,53,9,29.44,29.21,11,2,13,0.00
2014-11-24,92.7,78.8,71.2,70.4,64.7,56.8,91,64,38,29.47,29.24,13,2,17,0.50
2014-11-25,80.2,72.2,66.0,70.4,62.9,54.2,93,74,43,29.68,29.36,10,2,13,0.04
2014-11-26,76.3,69.3,63.7,62.6,60.0,56.7,84,73,61,29.68,29.50,7,2,9,0.00
2014-11-27,72.3,67.7,63.5,64.5,60.5,57.5,89,78,64,29.80,29.53,9,3,13,0.00
2014-11-28,74.3,67.0,62.8,58.1,54.7,51.2,82,66,47,29.80,29.65,8,2,12,0.00
2014-11-29,84.9,70.9,58.8,61.1,55.8,48.0,89,62,29,29.68,29.44,9,2,10,0.00
2014-11-30,88.7,70.9,57.9,63.3,57.5,49.2,89,65,30,29.53,29.36,15,2,20,0.00
2014-12-1,88.7,74.5,65.7,66.7,61.6,55.9,92,67,36,29.47,29.21,8,2,13,0.05
2014-12-2,92.3,76.7,68.0,67.9,61.3,54.0,87,63,29,29.47,29.27,18,2,29,0.62
2014-12-3,95.7,76.5,67.3,69.8,63.7,54.5,91,70,27,29.50,29.27,17,2,18,1.21
2014-12-4,82.0,74.3,68.0,70.5,66.9,60.2,93,79,61,29.50,29.24,6,1,8,0.12
2014-12-5,88.2,74.6,65.3,67.7,63.4,56.1,89,70,39,29.33,29.12,17,2,21,1.62
2014-12-7,89.8,76.6,66.2,68.1,65.0,55.8,93,70,41,29.27,29.06,9,2,13,0.21
2014-12-8,87.1,73.7,65.8,69.2,64.5,53.9,95,75,41,29.36,29.15,17,1,20,0.28
2014-12-9,80.2,71.8,66.9,67.5,64.1,61.9,89,77,62,29.50,29.36,9,2,13,0.00
2014-12-10,82.6,71.6,65.1,68.2,65.0,62.1,93,81,57,29.50,29.30,7,2,10,0.25
2014-12-11,77.2,68.4,62.1,72.5,64.2,55.8,98,87,60,29.44,29.21,24,4,26,0.28
2014-12-12,70.0,64.6,60.1,58.7,54.5,46.7,91,71,46,29.62,29.42,20,9,28,0.13
2014-12-13,72.1,65.4,59.9,57.2,53.3,49.5,87,66,46,29.62,29.50,11,4,13,0.00
2014-12-14,80.2,68.5,58.3,58.5,53.8,45.5,90,62,33,29.53,29.30,7,1,10,0.00
2014-12-15,81.1,69.2,58.5,61.2,55.3,50.3,92,64,40,29.44,29.30,6,2,10,0.00
2014-12-16,83.8,71.2,58.8,65.8,58.8,53.6,89,67,43,29.36,29.00,8,2,12,0.00
2014-12-17,74.7,68.7,62.4,64.7,57.5,53.0,89,68,50,29.39,29.03,12,3,17,0.00
2014-12-18,80.2,72.7,66.6,67.2,63.1,56.0,87,72,60,29.39,29.15,7,1,11,0.00
2014-12-19,74.8,68.3,62.2,65.0,55.8,48.4,93,66,47,29.62,29.24,10,3,13,0.00
2014-12-20,77.9,68.1,61.7,55.7,52.5,48.2,73,58,44,29.62,29.47,7,2,10,0.00
2014-12-21,82.8,70.9,58.5,62.6,58.7,52.4,90,67,42,29.62,29.47,9,2,13,0.00
2014-12-22,88.9,73.8,63.0,67.0,61.3,55.8,91,67,35,29.59,29.42,7,2,13,0.00
2014-12-23,80.4,71.4,66.7,69.0,64.4,59.3,92,79,65,29.53,29.39,6,1,7,0.13
2014-12-24,82.8,72.1,67.5,73.0,66.7,63.7,96,84,55,29.50,29.36,13,2,17,0.00
2014-12-25,89.6,74.8,67.6,70.8,66.7,62.3,95,78,46,29.50,29.15,9,1,13,1.17
2014-12-26,88.5,72.8,65.5,71.4,62.4,45.9,94,73,27,29.62,29.18,16,2,27,0.08
2014-12-27,70.3,66.6,64.4,60.3,55.6,53.1,86,68,57,29.68,29.59,8,3,10,0.00
2014-12-28,73.4,68.0,64.4,63.4,61.0,58.9,90,79,65,29.68,29.44,7,1,10,0.00
2014-12-29,84.0,73.1,65.1,68.4,63.5,56.6,94,74,44,29.44,29.12,8,1,11,0.09
2014-12-30,93.6,77.9,65.3,68.0,51.8,24.9,91,50,10,29.83,29.12,9,1,12,0.00
2014-12-31,78.3,71.9,64.9,65.3,61.0,50.4,80,69,54,30.01,29.83,13,3,16,0.00
2015-1-1,92.1,77.3,64.0,69.1,64.3,54.0,91,67,30,29.98,29.77,7,1,10,0.00
2015-1-2,87.1,78.6,72.0,71.5,67.7,62.2,89,71,44,30.06,29.89,7,2,9,0.00